Weather in Novotolucheevo

Russia / Voronezh Oblast     50°32′02″N   40°58′55″E
temp.,
°C
wind,
m/s
gust,
m/s
humid.,
%
clouds,
%
prec.,
mm/h
press.,
hPa
HPBL,
m
7 march, sun
sun700:00−6nw597557 0.0 1018766
03:00−6wnw487529 0.0 1019653
06:00−6wsw48840 0.0 1020361
09:00−4wsw68750 0.0 1019936
12:00−1wsw7106487 0.1 10171271
15:000wsw8135393 0.1 10131225
18:00−1sw81555100 0.0 10101073
21:00−1sw101864100 0.0 10091135
8 march, mon
mon800:00−2wsw101784100 0.0 10071002
03:00−1wsw81486100 0.1 1007927
06:00−2wsw81393100 0.4 1007738
09:00−1wsw8138598 0.7 1007831
12:000wsw81286100 0.3 10061041
15:00+2wsw81272100 0.4 10061283
18:000wnw598995 0.8 1007618
21:00−2nw388383 0.9 1008441
9 march, tue
tue900:00−4wnw258462 0.0 1009314
03:00−4w468971 0.1 1010463
06:00−5w379189 0.1 1012384
09:00−4nw568275 0.2 1013685
12:00−4nnw4572100 0.1 1014832
15:00−4nw5670100 0.2 1015929
18:00−5nw4681100 0.3 1016714
21:00−6nw5779100 0.5 1018855
10 march, wed
wed1000:00−8nnw5783100 0.1 1019716
03:00−9nnw4681100 0.1 1021673
06:00−11nnw478292 0.0 1022612
09:00−10nnw477786 0.0 1024707
12:00−9nnw5667100 0.0 1025872
15:00−9nnw466174 0.0 1025840
18:00−10n456638 0.0 1026586
21:00−12nne356739 0.0 1027362
11 march, thu
thu1100:00−13nne346963 0.0 1028299
03:00−14ne347332 0.0 1029257
06:00−15ne23700 0.0 1030239
09:00−14e23590 0.0 1031333
12:00−10ese214510 0.0 1032593
15:00−8e113910 0.0 1031655
18:00−8ese11410 0.0 1030408
21:00−9se35500 0.0 1031272